Location: St. Louis
(38.6270°N, 90.1994°W)
Time: 07:28:35
(UTC-06:00)

Transit 4A - Pass Details

Date: 07 December 2021
Orbit: 864 x 981 km, 66.8° (Epoch: 19 January)

Event Time Altitude Azimuth Distance (km) Brightness Sun altitude
Rises 19:41:27 0° 250° (WSW) 3,462 11.8 -34.8°
Reaches altitude 10° 19:44:32 10° 266° (W) 2,542 11.0 -35.4°
Maximum altitude 19:48:55 21° 314° (NW) 1,893 9.8 -36.3°
Enters shadow 19:50:09 20° 331° (NNW) 1,961 9.8 -36.5°
Drops below altitude 10° 19:53:25 10° 3° (N) 2,607 - -37.1°
Sets 19:56:39 0° 19° (NNE) 3,576 - -37.8°
